| time (UTC) | temp F | wind direction | speed MPH | gust MPH | rain 1hr in | rain 24hr in | rain mn in | humidity % | barometer mb |
| 20260505041539 | 62 | 35 | 6.0 | 16.0 | 0.00 | 0.00 | 0.00 | 50 | 857.1 |
| 20260505040024 | 62 | 27 | 6.0 | 15.0 | 0.00 | 0.00 | 0.00 | 44 | 856.9 |
| 20260505034521 | 62 | 53 | 9.0 | 16.0 | 0.00 | 0.00 | 0.00 | 44 | 856.5 |
| 20260505033021 | 63 | 40 | 5.0 | 12.0 | 0.00 | 0.00 | 0.00 | 45 | 856.4 |
| 20260505031520 | 64 | 62 | 7.0 | 13.0 | 0.00 | 0.00 | 0.00 | 44 | 856.2 |
| 20260505030021 | 64 | 55 | 8.0 | 17.0 | 0.00 | 0.00 | 0.00 | 44 | 856.0 |
| 20260505024522 | 65 | 22 | 6.0 | 12.0 | 0.00 | 0.00 | 0.00 | 43 | 855.8 |
| 20260505023018 | 66 | 28 | 6.0 | 14.0 | 0.00 | 0.00 | 0.00 | 39 | 855.7 |
| 20260505021525 | 66 | 9 | 4.0 | 9.0 | 0.00 | 0.00 | 0.00 | 38 | 855.5 |
| 20260505020020 | 66 | 5 | 5.0 | 15.0 | 0.00 | 0.00 | 0.00 | 37 | 855.3 |
| 20260505014517 | 67 | 49 | 7.0 | 13.0 | 0.00 | 0.00 | 0.00 | 37 | 855.4 |
| 20260505013019 | 68 | 51 | 10.0 | 15.0 | 0.00 | 0.00 | 0.00 | 35 | 855.5 |
| 20260505011526 | 69 | 36 | 2.0 | 4.0 | 0.00 | 0.00 | 0.00 | 30 | 855.4 |
| 20260505010015 | 69 | 84 | 1.0 | 3.0 | 0.00 | 0.00 | 0.00 | 31 | 855.5 |
| 20260505004526 | 69 | 82 | 1.0 | 4.0 | 0.00 | 0.00 | 0.00 | 31 | 855.6 |
| 20260505003013 | 69 | 63 | 0.0 | 5.0 | 0.00 | 0.00 | 0.00 | 31 | 855.6 |
| 20260505001512 | 69 | 41 | 2.0 | 4.0 | 0.00 | 0.00 | 0.00 | 33 | 855.7 |
| 20260505000017 | 68 | 296 | 2.0 | 8.0 | 0.00 | 0.00 | 0.00 | 34 | 855.7 |
| 20260504234509 | 69 | 318 | 0.0 | 8.0 | 0.00 | 0.00 | 0.00 | 33 | 855.9 |
| 20260504233009 | 69 | 268 | 4.0 | 11.0 | 0.00 | 0.00 | 0.00 | 33 | 856.0 |
| 20260504231509 | 68 | 300 | 5.0 | 12.0 | 0.00 | 0.00 | 0.00 | 33 | 856.0 |
| 20260504230015 | 69 | 293 | 6.0 | 14.0 | 0.00 | 0.00 | 0.00 | 33 | 856.1 |
| 20260504224507 | 69 | 298 | 8.0 | 15.0 | 0.00 | 0.00 | 0.00 | 33 | 856.1 |
| 20260504223006 | 71 | 270 | 4.0 | 12.0 | 0.00 | 0.00 | 0.00 | 31 | 856.1 |
| 20260504221506 | 72 | 194 | 2.0 | 4.0 | 0.00 | 0.00 | 0.00 | 32 | 856.0 |
| 20260504220005 | 71 | 195 | 1.0 | 6.0 | 0.00 | 0.00 | 0.00 | 33 | 856.1 |
| 20260504214503 | 70 | 142 | 0.0 | 2.0 | 0.00 | 0.00 | 0.00 | 35 | 856.3 |
| 20260504213005 | 69 | 239 | 1.0 | 4.0 | 0.00 | 0.00 | 0.00 | 37 | 856.4 |
| 20260504211607 | 70 | 189 | 1.0 | 8.0 | 0.00 | 0.00 | 0.00 | 35 | 856.4 |
| 20260504210100 | 71 | 314 | 0.0 | 5.0 | 0.00 | 0.00 | 0.00 | 32 | 856.5 |
| 20260504204558 | 72 | 265 | 0.0 | 7.0 | 0.00 | 0.00 | 0.00 | 32 | 856.5 |
| 20260504203120 | 73 | 114 | 0.0 | 4.0 | 0.00 | 0.00 | 0.00 | 29 | 856.5 |
| 20260504201556 | 73 | 194 | 0.0 | 5.0 | 0.00 | 0.00 | 0.00 | 30 | 856.5 |
| 20260504200055 | 72 | 165 | 0.0 | 5.0 | 0.00 | 0.00 | 0.00 | 30 | 856.6 |
| 20260504194602 | 73 | 177 | 0.0 | 2.0 | 0.00 | 0.00 | 0.00 | 28 | 856.7 |
| 20260504193059 | 73 | 63 | 1.0 | 10.0 | 0.00 | 0.00 | 0.00 | 28 | 856.9 |
| 20260504191550 | 73 | 28 | 4.0 | 8.0 | 0.00 | 0.00 | 0.00 | 30 | 856.9 |
| 20260504184556 | 74 | 28 | 6.0 | 12.0 | 0.00 | 0.00 | 0.00 | 29 | 857.4 |
| 20260504183045 | 73 | 22 | 6.0 | 13.0 | 0.00 | 0.00 | 0.00 | 30 | 857.4 |
| 20260504181544 | 73 | 43 | 6.0 | 14.0 | 0.00 | 0.00 | 0.00 | 31 | 857.6 |
| 20260504180040 | 72 | 355 | 7.0 | 16.0 | 0.00 | 0.00 | 0.00 | 30 | 857.8 |
| 20260504174536 | 72 | 31 | 7.0 | 13.0 | 0.00 | 0.00 | 0.00 | 31 | 857.9 |
| 20260504173042 | 71 | 10 | 9.0 | 13.0 | 0.00 | 0.00 | 0.00 | 32 | 858.1 |
| 20260504171527 | 71 | 33 | 8.0 | 15.0 | 0.00 | 0.00 | 0.00 | 32 | 858.3 |
| 20260504140104 | 61 | 94 | 5.0 | 10.0 | 0.00 | 0.00 | 0.00 | 50 | 859.0 |
| 20260504081517 | 59 | 27 | 4.0 | 7.0 | 0.00 | 0.00 | 0.00 | 41 | 858.6 |
| 20260504044559 | 62 | 149 | 0.0 | 0.0 | 0.00 | 0.00 | 0.00 | 31 | 858.6 |
| 20260504043050 | 63 | 138 | 0.0 | 0.0 | 0.00 | 0.00 | 0.00 | 29 | 858.6 |